Other Public Products
Issued by NWS Charleston, SC

Current Version | Previous Version | Graphics & Text | Print | Product List | Glossary On
Versions: 1 2 3 4 5 6 7 8 9 10 11 12 13 14 15 16 17 18 19 20 21 22 23 24 25 26 27 28 29 30 31 32 33 34 35 36 37 38 39 40 41 42 43 44 45 46 47 48 49 50
904
FPUS82 KCHS 250927
OPUCHS

TEST...KCHS/KSAV Gateway Observations...TEST
National Weather Service Charleston SC
500 AM EDT FRI MAY 25 2018

NOTE: "fair" indicates few or no clouds below 12,000 feet with no
significant weather and/or obstructions to visibility.

SCZ050-WAZ558-NCZ071-TXZ119-213-PAZ071-DCZ001-FLZ074-172-MI076-
NYZ176-178-MAZ016-IL014-TNZ027-NJZ106-GAZ044-MD014-251000-

...Gateway Observations for Charleston International...

CITY           SKY/WX    TMP DP  RH WIND       PRES   REMARKS
Chas Airport   FAIR      72  71  97 CALM      30.07F
Seattle        PTCLDY    55  48  77 N3        30.04S
Charlotte      CLOUDY    71  70  96 SE6       30.12S
Dallas DFW     PTCLDY    76  70  82 S12       29.95F
Dallas Love    PTCLDY    78  70  76 S9        29.96F
Philladelphia  FAIR      62  57  83 SW3       30.08F
Wash National  FAIR      65  59  81 SW5       30.10F
Baltimore      FAIR      55  53  93 W3        30.08F
Miami          CLOUDY    77  73  87 SE7       29.99S
Detroit        FAIR      59  51  75 S5        30.03F
Newark         FAIR      63  51  65 SW6       30.05S
Laguardia      FAIR      69  50  50 SW6       30.04F
J F K          FAIR      61  56  83 SW9       30.06F
Boston Logan   FAIR      55  48  77 SW12      29.96F
Ft. Lauderdale PTCLDY    77  75  94 E5        29.98S
Chicago O`Hare FAIR      68  51  54 S6        29.97F
Chicago Midway FAIR      69  51  52 S5        29.98F
Houston Bush   FAIR      71  71 100 CALM      29.97F
Houston Hobby  FAIR      72  72 100 CALM      29.97F
Nashville      MOCLDY    69  65  86 CALM      30.02S
Atlanta        CLOUDY    71  67  87 E8        30.05F

$$

GAZ044-118-TXZ119-213-NCZ071-DCZ001-MDZ014-506-PAZ021-071-NJZ106-
NYZ176-178-MAZ106-OHZ011-021-055-MIZ076-KYZ091-ILZ014-INZ047-
MNZ060-ONZ431-251000-

...Gateway Observations for Savannah International...

CITY           SKY/WX    TMP DP  RH WIND       PRES   REMARKS
Savannah Arpt  FAIR      74  73  97 E5        30.06S
Atlanta        CLOUDY    71  67  87 E8        30.05F
Charlotte      CLOUDY    71  70  96 SE6       30.12S
Dallas DFW     PTCLDY    76  70  82 S12       29.95F
Houston Bush   FAIR      71  71 100 CALM      29.97F
Wash National  FAIR      65  59  81 SW5       30.10F
Wash Dulles    FAIR      59  54  83 CALM      30.09F
Baltimore      FAIR      55  53  93 W3        30.08F
Philadelphia   FAIR      62  57  83 SW3       30.08F
Newark         FAIR      63  51  65 SW6       30.05S
Laguardia      FAIR      69  50  50 SW6       30.04F
J F K          FAIR      61  56  83 SW9       30.06F
Boston         FAIR      55  48  77 SW12      29.96F
Pittsburg      FAIR      56  52  86 CALM      30.07F
Akron          FAIR      58  51  78 CALM      30.07F
Cleveland      FAIR      56  51  84 CALM      30.06F
Cincinnati     FAIR      63  56  78 CALM      30.04F
Columbus       FAIR      57  57  99 MISG      30.04F
Detroit        FAIR      59  51  75 S5        30.03F
Chicago O`Hare FAIR      68  51  54 S6        29.97F
Minneapolis    TSTM      70  64  81 S6        29.87F
Indianapolis   FAIR      63  54  72 CALM      30.03F
Toronto Canada MOCLDY    61  46  59 W7        29.97F

$$




USA.gov is the U.S. government's official web portal to all federal, state and local government web resources and services.